Simultaneous Nadir Overpasses (SNOs) Predictions

Prediction of SNOs between AQUA and METOP-B Satellite Orbit:

Table of predicted SNOs for the next 14.0 days since TLE Epoch: 10/22/2016
Index Date (AQUA) Time (AQUA) Lat,Lon (AQUA) SZA (AQUA ) Date (METOP-B) Time (METOP-B) Lat,Lon (METOP-B) SZA (METOP-B ) Distance(km) Time Diff (sec)
1 10/22/2016 17:52:27 -73.65, 86.37 95.06 10/22/2016 17:51:15 -73.66, 86.39 95.04 1.35 72
2 10/22/2016 18:41:56 73.71,-106.12 85.02 10/22/2016 18:41:54 73.72,-106.14 85.04 1.47 2
3 10/22/2016 19:31:23 -73.80, 61.33 94.88 10/22/2016 19:32:34 -73.79, 61.35 94.89 1.21 71
4 10/25/2016 13:26:44 -73.67, 152.76 94.06 10/25/2016 13:25:38 -73.67, 152.82 94.05 2.07 66
5 10/25/2016 14:16:13 73.74, -39.75 86.03 10/25/2016 14:16:17 73.73, -39.71 86.02 1.36 4
6 10/25/2016 15:05:42 -73.92, 127.48 93.78 10/25/2016 15:06:54 -73.95, 128.15 93.75 20.73 72
7 10/28/2016 09:01:00 -73.65,-140.77 93.13 10/28/2016 09:00:02 -73.63,-140.86 93.14 3.40 58
8 10/28/2016 09:50:29 73.72, 26.71 86.96 10/28/2016 09:50:40 73.74, 26.72 86.98 1.58 11
9 10/28/2016 10:40:04 -74.21,-166.75 92.53 10/28/2016 10:41:12 -74.21,-164.81 92.55 58.86 68
10 10/31/2016 04:35:15 -73.65, -74.32 92.21 10/31/2016 04:34:24 -73.64, -74.43 92.21 3.34 51
11 10/31/2016 05:24:44 73.72, 93.14 87.89 10/31/2016 05:25:02 73.74, 93.14 87.91 2.09 18
12 10/31/2016 06:14:24 -74.47,-100.91 91.35 10/31/2016 06:15:29 -74.46, -97.75 91.38 94.26 65
13 11/03/2016 00:09:31 -73.65, -7.90 91.31 11/03/2016 00:08:47 -73.65, -8.01 91.31 3.28 44
14 11/03/2016 00:59:00 73.74, 159.55 88.79 11/03/2016 00:59:25 73.75, 159.56 88.80 0.94 25




NCC Satellite Simultaneous Nadir Overpasses (SNOs) Prediction Service
